Weather History for Olathe New Century, KS

Change the Weather History Date:

Friday, November 2, 2012

  Actual Average Record
Temperature  
Mean Temperature 54 °F -  
Max Temperature 64 °F 56 °F 73 °F (2005)
Min Temperature 43 °F 39 °F 24 °F (1996)
Degree Days  
Heating Degree Days 12    
Growing Degree Days 4 (Base 50)    
Moisture  
Dew Point 37 °F    
Average Humidity 57    
Maximum Humidity 74    
Minimum Humidity 43    
Precipitation  
Precipitation 0.00 in - - ()
Sea Level Pressure  
Sea Level Pressure 29.92 in    
Wind  
Wind Speed 10 mph (East)    
Max Wind Speed 17 mph    
Max Gust Speed 24 mph    
Visibility 9 miles    
Events      
Averages and records for this station are not official NWS values.
T = Trace of Precipitation, MM = Missing Value Source: NWS Daily Summary

Daily Weather History Graph

Daily Weather History Graph

Search for Another Location

Airport:

Trip Planner

Search our weather history database for the weather conditions in past years. The results will help you decide how hot, cold, wet, or windy it might be!

Date:

Astronomy

Nov. 02, 2012 Rise Set
Actual Time 7:48 AM CDT 6:17 PM CDT
Civil Twilight 7:20 AM CDT 6:45 PM CDT
Nautical Twilight 6:49 AM CDT 7:16 PM CDT
Astronomical Twilight 6:17 AM CDT 7:47 PM CDT
Moon 9:06 PM CDT (11/2) 11:08 AM CDT (11/2)
Length of Visible Light 11h 24m
Length of Day
10h 29m
Waning Gibbous, 87% of the Moon is Illuminated
Nov 2
Waning Gibbous
Nov 6
Last Quarter
Nov 13
New
Nov 20
First Quarter
Nov 28
Full

Hourly Weather History & Observations

Time (CDT) Temp. Windchill Dew Point Humidity Pressure Visibility Wind Dir Wind Speed Gust Speed Precip Events Conditions
12:53 AM 48.0 °F - 39.9 °F 74% 29.96 in 10.0 mi NE 6.9 mph - N/A   Clear
1:53 AM 48.9 °F - 39.9 °F 71% 29.95 in 8.0 mi ENE 5.8 mph - N/A   Clear
2:53 AM 50.0 °F - 39.0 °F 66% 29.95 in 9.0 mi ENE 9.2 mph - N/A   Clear
3:53 AM 46.9 °F - 37.9 °F 71% 29.96 in 9.0 mi East 5.8 mph - N/A   Clear
4:53 AM 46.0 °F 43.9 °F 37.0 °F 71% 29.96 in 8.0 mi East 4.6 mph - N/A   Clear
5:53 AM 44.1 °F 39.0 °F 36.0 °F 73% 29.97 in 8.0 mi East 9.2 mph - N/A   Clear
6:53 AM 43.0 °F 36.8 °F 35.1 °F 74% 29.97 in 8.0 mi East 11.5 mph - N/A   Clear
7:53 AM 43.0 °F 37.2 °F 34.0 °F 71% 29.96 in 8.0 mi East 10.4 mph - N/A   Clear
8:53 AM 44.1 °F 38.1 °F 34.0 °F 68% 29.97 in 8.0 mi ESE 11.5 mph - N/A   Clear
9:53 AM 48.0 °F - 35.1 °F 61% 29.97 in 8.0 mi ESE 16.1 mph 21.9 mph N/A   Clear
10:53 AM 52.0 °F - 35.1 °F 53% 29.96 in 10.0 mi ESE 13.8 mph 21.9 mph N/A   Clear
11:53 AM 55.0 °F - 37.0 °F 51% 29.95 in 10.0 mi ESE 17.3 mph - N/A   Clear
12:53 PM 60.1 °F - 39.0 °F 46% 29.90 in 10.0 mi ESE 16.1 mph 24.2 mph N/A   Clear
1:53 PM 63.0 °F - 39.9 °F 43% 29.87 in 10.0 mi East 16.1 mph - N/A   Clear
2:53 PM 64.0 °F - 41.0 °F 43% 29.85 in 10.0 mi ESE 12.7 mph 20.7 mph N/A   Clear
3:53 PM 64.0 °F - 41.0 °F 43% 29.84 in 10.0 mi ESE 17.3 mph 20.7 mph N/A   Clear
4:53 PM 63.0 °F - 41.0 °F 45% 29.85 in 10.0 mi East 11.5 mph 18.4 mph N/A   Clear
5:53 PM 60.1 °F - 41.0 °F 49% 29.87 in 10.0 mi ENE 5.8 mph - N/A   Clear
6:53 PM 57.0 °F - 37.9 °F 49% 29.88 in 10.0 mi NE 8.1 mph - N/A   Clear
7:53 PM 55.0 °F - 35.1 °F 47% 29.90 in 10.0 mi NE 11.5 mph - N/A   Clear
8:53 PM 53.1 °F - 34.0 °F 48% 29.91 in 10.0 mi NNE 11.5 mph - N/A   Clear
9:53 PM 52.0 °F - 30.9 °F 45% 29.90 in 10.0 mi NE 12.7 mph - N/A   Clear
10:53 PM 51.1 °F - 30.9 °F 46% 29.91 in 10.0 mi NE 9.2 mph - N/A   Clear
11:53 PM 46.9 °F - 33.1 °F 59% 29.94 in 10.0 mi North 8.1 mph - N/A   Clear